GAF942 EHAM-EDDK

Flight info

Callsign GAF942
Flight time 4h 3m
Altitude 35000
Route SPY4V ANDIK N873 HUNQI DCT IPSUB DCT BAVTA N607 AAL RADIS/N0340F390 P615 ALS M852 EKERN DCT POVEL Z94 GALMA T703 LULAR T105 LANDU DCT DMN DCT GIVMI/N0398F400 Y101 ERNAS T161 GOLMO DCT AKANU L603 RATIM DCT ASKIK T840 GULKO GULK1D
Aircraft A359/M-SADE2E3GHIJ1J2J3J4J5M1P2RWXYZ/LB1D1

Departure

Time 2026-05-04 15:21
Airport Amsterdam Airport Schiphol (EHAM)

Arrival

Time 2026-05-04 19:24
Airport Cologne Bonn Airport (EDDK)
Time Latitude Longitude Altitude Speed Heading
2026-05-04 14:47 52.30609 4.74437 4 ft 0 kts 97°
2026-05-04 15:07 52.30611 4.74413 4 ft 3 kts 97°
2026-05-04 15:07 52.30614 4.74377 7 ft 3 kts 89°
2026-05-04 15:07 52.30612 4.74344 7 ft 3 kts 66°
2026-05-04 15:07 52.30603 4.74320 5 ft 3 kts 44°
2026-05-04 15:08 52.30588 4.74300 5 ft 3 kts 18°
2026-05-04 15:08 52.30573 4.74294 6 ft 3 kts 340°
2026-05-04 15:08 52.30559 4.74307 7 ft 3 kts 307°
2026-05-04 15:08 52.30548 4.74336 6 ft 3 kts 285°
2026-05-04 15:09 52.30545 4.74358 6 ft 0 kts 274°
2026-05-04 15:12 52.30546 4.74333 6 ft 8 kts 275°
2026-05-04 15:13 52.30548 4.74305 6 ft 0 kts 275°
2026-05-04 15:13 52.30548 4.74304 6 ft 0 kts 275°
2026-05-04 15:13 52.30555 4.74264 6 ft 16 kts 293°
2026-05-04 15:13 52.30615 4.74210 4 ft 10 kts
2026-05-04 15:14 52.30729 4.74218 4 ft 19 kts
2026-05-04 15:14 52.30870 4.74230 4 ft 22 kts
2026-05-04 15:14 52.31031 4.74246 4 ft 24 kts
2026-05-04 15:14 52.31208 4.74261 4 ft 26 kts
2026-05-04 15:15 52.31398 4.74280 4 ft 28 kts
2026-05-04 15:15 52.31598 4.74298 6 ft 29 kts
2026-05-04 15:15 52.31809 4.74317 2 ft 32 kts
2026-05-04 15:16 52.32029 4.74181 1 ft 13 kts 274°
2026-05-04 15:16 52.32038 4.73969 2 ft 20 kts 275°
2026-05-04 15:16 52.32061 4.73488 8 ft 23 kts 278°
2026-05-04 15:17 52.32150 4.73268 6 ft 25 kts 317°
2026-05-04 15:17 52.32442 4.72858 3 ft 30 kts 319°
2026-05-04 15:17 52.32602 4.72626 3 ft 30 kts 318°
2026-05-04 15:18 52.32719 4.72442 -1 ft 24 kts 313°
2026-05-04 15:18 52.32826 4.72244 5 ft 25 kts 311°
2026-05-04 15:18 52.32948 4.72016 3 ft 28 kts 312°
2026-05-04 15:19 52.33138 4.71575 5 ft 18 kts 264°
2026-05-04 15:19 52.33067 4.71399 5 ft 20 kts 223°
2026-05-04 15:19 52.32865 4.71000 2 ft 24 kts 267°
2026-05-04 15:20 52.32946 4.70898 2 ft 14 kts
2026-05-04 15:20 52.33117 4.70914 -1 ft 55 kts
2026-05-04 15:20 52.33773 4.70972 6 ft 131 kts
2026-05-04 15:20 52.34863 4.71074 337 ft 168 kts
2026-05-04 15:21 52.35994 4.71212 1341 ft 163 kts
2026-05-04 15:21 52.37192 4.71314 1927 ft 186 kts
2026-05-04 15:21 52.40109 4.71560 2906 ft 237 kts
2026-05-04 15:22 52.41822 4.71713 3607 ft 253 kts
2026-05-04 15:22 52.43606 4.71879 4541 ft 259 kts
2026-05-04 15:22 52.47310 4.72242 6415 ft 273 kts
2026-05-04 15:23 52.49208 4.72672 7371 ft 279 kts 14°
2026-05-04 15:23 52.51013 4.73920 8398 ft 285 kts 27°
2026-05-04 15:23 52.52732 4.75603 9452 ft 290 kts 33°
2026-05-04 15:23 52.54404 4.77514 10402 ft 299 kts 36°
2026-05-04 15:24 52.58003 4.81976 11342 ft 348 kts 37°
2026-05-04 15:24 52.61979 4.86913 13052 ft 365 kts 35°
2026-05-04 15:25 52.64035 4.89424 13970 ft 371 kts 35°
2026-05-04 15:25 52.66133 4.91968 14776 ft 377 kts 35°
2026-05-04 15:25 52.68262 4.94540 15570 ft 382 kts 35°
2026-05-04 15:26 52.72616 4.99797 17169 ft 393 kts 35°
2026-05-04 15:26 52.74089 5.01579 17726 ft 397 kts 35°
2026-05-04 15:26 52.76592 5.04614 18608 ft 403 kts 35°
2026-05-04 15:27 52.78868 5.07381 19356 ft 409 kts 34°
2026-05-04 15:27 52.83495 5.13018 20821 ft 421 kts 34°
2026-05-04 15:28 52.88296 5.18881 22297 ft 432 kts 33°
2026-05-04 15:28 52.90735 5.21865 23030 ft 438 kts 33°
2026-05-04 15:28 52.95679 5.27923 24250 ft 451 kts 33°
2026-05-04 15:29 52.98218 5.31041 24806 ft 458 kts 33°
2026-05-04 15:30 53.08715 5.43993 27058 ft 482 kts 34°
2026-05-04 15:30 53.16913 5.54170 28762 ft 498 kts 35°
2026-05-04 15:31 53.22513 5.61150 29830 ft 508 kts 35°
2026-05-04 15:31 53.25364 5.64713 30313 ft 513 kts 35°
2026-05-04 15:32 53.33943 5.75472 31875 ft 518 kts 35°
2026-05-04 15:32 53.39728 5.82754 32846 ft 522 kts 34°
2026-05-04 15:33 53.45562 5.90123 33726 ft 525 kts 34°
2026-05-04 15:34 53.54230 6.01124 34999 ft 522 kts 35°
2026-05-04 15:34 53.62889 6.12172 35016 ft 520 kts 35°
2026-05-04 15:35 53.71524 6.23246 35166 ft 519 kts 35°
2026-05-04 15:35 53.74398 6.26944 35579 ft 518 kts 35°
2026-05-04 15:36 53.80093 6.34293 36620 ft 512 kts 36°
2026-05-04 15:36 53.82927 6.37958 37057 ft 511 kts 36°
2026-05-04 15:36 53.85748 6.41614 37471 ft 511 kts 36°
2026-05-04 15:37 53.88537 6.45234 37895 ft 510 kts 36°
2026-05-04 15:37 53.91344 6.48884 38333 ft 508 kts 36°
2026-05-04 15:37 53.94148 6.52538 38731 ft 508 kts 36°
2026-05-04 15:37 53.96947 6.56189 39020 ft 507 kts 36°
2026-05-04 15:38 53.99701 6.59790 39285 ft 507 kts 36°
2026-05-04 15:38 54.02501 6.63457 39550 ft 508 kts 36°
2026-05-04 15:38 54.05305 6.67134 39814 ft 508 kts 36°
2026-05-04 15:38 54.07155 6.69564 39993 ft 508 kts 36°
2026-05-04 15:39 54.09956 6.73250 40247 ft 508 kts 36°
2026-05-04 15:39 54.12747 6.76927 40494 ft 508 kts 36°
2026-05-04 15:39 54.18340 6.84318 40965 ft 509 kts 36°
2026-05-04 15:40 54.21140 6.88027 41016 ft 509 kts 36°
2026-05-04 15:40 54.26735 6.95460 41016 ft 509 kts 36°
2026-05-04 15:41 54.32291 7.02867 41015 ft 509 kts 36°
2026-05-04 15:41 54.37876 7.10338 41014 ft 509 kts 36°
2026-05-04 15:42 54.43456 7.17829 41017 ft 509 kts 36°
2026-05-04 15:42 54.49040 7.25352 41021 ft 509 kts 36°
2026-05-04 15:43 54.54612 7.32887 41019 ft 509 kts 36°
2026-05-04 15:43 54.60183 7.40446 41026 ft 509 kts 36°
2026-05-04 15:44 54.65751 7.48029 41017 ft 510 kts 36°
2026-05-04 15:44 54.71225 7.55509 41019 ft 510 kts 36°
2026-05-04 15:45 54.76787 7.63139 41016 ft 510 kts 36°
2026-05-04 15:45 54.82344 7.70788 41019 ft 510 kts 36°
2026-05-04 15:46 54.87869 7.78421 41016 ft 510 kts 36°
2026-05-04 15:46 54.93431 7.86132 41017 ft 510 kts 37°
2026-05-04 15:47 54.99106 7.93531 41015 ft 508 kts 28°
2026-05-04 15:47 55.03634 7.97309 41014 ft 503 kts 19°
2026-05-04 15:48 55.10186 8.01331 40988 ft 503 kts 15°
2026-05-04 15:48 55.13518 8.03176 40790 ft 502 kts 14°
2026-05-04 15:48 55.20192 8.06847 40513 ft 502 kts 14°
2026-05-04 15:49 55.23525 8.08714 40273 ft 502 kts 15°
2026-05-04 15:49 55.26854 8.10603 40044 ft 502 kts 15°
2026-05-04 15:49 55.30181 8.12508 39806 ft 502 kts 15°
2026-05-04 15:49 55.33503 8.14420 39566 ft 502 kts 15°
2026-05-04 15:50 55.36820 8.16336 39341 ft 502 kts 15°
2026-05-04 15:50 55.40143 8.18260 39114 ft 502 kts 15°
2026-05-04 15:50 55.43465 8.20185 38895 ft 502 kts 15°
2026-05-04 15:50 55.46783 8.22110 38666 ft 502 kts 15°
2026-05-04 15:51 55.50101 8.24038 38397 ft 502 kts 15°
2026-05-04 15:51 55.53418 8.25968 38111 ft 501 kts 15°
2026-05-04 15:51 55.56664 8.27859 37837 ft 500 kts 15°
2026-05-04 15:51 55.59879 8.29996 37523 ft 501 kts 22°
2026-05-04 15:52 55.62966 8.32870 36891 ft 501 kts 27°
2026-05-04 15:52 55.65973 8.35959 36176 ft 500 kts 28°
2026-05-04 15:52 55.68951 8.39153 35446 ft 499 kts 29°
2026-05-04 15:52 55.71909 8.42393 34681 ft 499 kts 30°
2026-05-04 15:53 55.74859 8.45645 33842 ft 500 kts 30°
2026-05-04 15:53 55.77818 8.48907 32874 ft 500 kts 30°
2026-05-04 15:53 55.80776 8.52159 31958 ft 500 kts 30°
2026-05-04 15:53 55.83739 8.55410 31034 ft 500 kts 30°
2026-05-04 15:54 55.86700 8.58657 30092 ft 501 kts 30°
2026-05-04 15:54 55.89670 8.61915 28971 ft 501 kts 30°
2026-05-04 15:54 55.92632 8.65171 28211 ft 496 kts 29°
2026-05-04 15:54 55.95550 8.68385 27520 ft 489 kts 29°
2026-05-04 15:55 55.98428 8.71560 26838 ft 484 kts 29°
2026-05-04 15:55 56.01244 8.74672 26140 ft 479 kts 29°
2026-05-04 15:55 56.04101 8.77831 25442 ft 475 kts 29°
2026-05-04 15:55 56.06834 8.80979 24753 ft 472 kts 33°
2026-05-04 15:56 56.09460 8.84504 24096 ft 468 kts 34°
2026-05-04 15:56 56.12012 8.88092 23412 ft 465 kts 35°
2026-05-04 15:56 56.14513 8.91701 22673 ft 460 kts 36°
2026-05-04 15:56 56.16975 8.95300 22006 ft 454 kts 36°
2026-05-04 15:57 56.19411 8.98876 21347 ft 449 kts 36°
2026-05-04 15:57 56.21823 9.02417 20672 ft 445 kts 36°
2026-05-04 15:57 56.24210 9.05920 20019 ft 441 kts 36°
2026-05-04 15:57 56.26584 9.09399 19342 ft 438 kts 36°
2026-05-04 15:58 56.28955 9.12872 18663 ft 436 kts 36°
2026-05-04 15:58 56.31305 9.16317 17929 ft 434 kts 35°
2026-05-04 15:58 56.33639 9.19742 17222 ft 432 kts 36°
2026-05-04 15:58 56.35959 9.23153 16519 ft 428 kts 36°
2026-05-04 15:59 56.38257 9.26540 15834 ft 424 kts 36°
2026-05-04 15:59 56.40505 9.29859 15152 ft 420 kts 36°
2026-05-04 15:59 56.42766 9.33201 14458 ft 417 kts 36°
2026-05-04 15:59 56.44999 9.36509 13766 ft 413 kts 36°
2026-05-04 16:00 56.47170 9.39729 13033 ft 409 kts 36°
2026-05-04 16:00 56.49354 9.42974 12330 ft 404 kts 36°
2026-05-04 16:00 56.51514 9.46189 11656 ft 399 kts 36°
2026-05-04 16:00 56.53643 9.49361 10980 ft 395 kts 36°
2026-05-04 16:01 56.55738 9.52489 10666 ft 381 kts 36°
2026-05-04 16:01 56.57730 9.55478 10551 ft 362 kts 36°
2026-05-04 16:01 56.59620 9.58320 10434 ft 344 kts 36°
2026-05-04 16:01 56.61421 9.61029 10333 ft 328 kts 36°
2026-05-04 16:02 56.63143 9.63619 10197 ft 315 kts 35°
2026-05-04 16:02 56.64804 9.66115 10061 ft 303 kts 35°
2026-05-04 16:02 56.68010 9.70923 9522 ft 302 kts 35°
2026-05-04 16:03 56.69636 9.73355 9178 ft 303 kts 35°
2026-05-04 16:03 56.71240 9.75764 8848 ft 301 kts 35°
2026-05-04 16:03 56.72850 9.78195 8520 ft 299 kts 36°
2026-05-04 16:03 56.74445 9.80609 8210 ft 297 kts 36°
2026-05-04 16:04 56.76030 9.83011 7870 ft 294 kts 36°
2026-05-04 16:04 56.79159 9.87762 7209 ft 291 kts 36°
2026-05-04 16:04 56.80709 9.90115 6892 ft 289 kts 36°
2026-05-04 16:05 56.82248 9.92456 6563 ft 287 kts 36°
2026-05-04 16:05 56.83779 9.94786 6240 ft 285 kts 36°
2026-05-04 16:05 56.86790 9.99379 5582 ft 281 kts 36°
2026-05-04 16:06 56.88304 10.01694 5266 ft 280 kts 36°
2026-05-04 16:06 56.92236 10.07716 4414 ft 274 kts 36°
2026-05-04 16:07 56.94167 10.10675 3992 ft 273 kts 36°
2026-05-04 16:07 56.98470 10.17288 3106 ft 269 kts 36°
2026-05-04 16:08 56.99901 10.19495 2805 ft 268 kts 35°
2026-05-04 16:08 57.04408 10.24542 2110 ft 234 kts
2026-05-04 16:09 57.07328 10.23448 1983 ft 200 kts 333°
2026-05-04 16:09 57.09620 10.21374 2014 ft 166 kts 322°
2026-05-04 16:10 57.11093 10.18302 1986 ft 161 kts 294°
2026-05-04 16:11 57.11207 10.12217 1984 ft 162 kts 266°
2026-05-04 16:11 57.11081 10.10150 1989 ft 162 kts 265°
2026-05-04 16:12 57.10728 10.04533 1947 ft 123 kts 267°
2026-05-04 16:12 57.10451 10.00176 1450 ft 106 kts 266°
2026-05-04 16:13 57.10281 9.97505 1140 ft 104 kts 266°
2026-05-04 16:13 57.10108 9.94878 798 ft 104 kts 265°
2026-05-04 16:14 57.09925 9.92198 528 ft 107 kts 269°
2026-05-04 16:14 57.09757 9.89456 220 ft 107 kts 268°
2026-05-04 16:15 57.09500 9.85459 89 ft 133 kts 262°
2026-05-04 16:16 57.09253 9.81264 2169 ft 196 kts 266°
2026-05-04 16:16 57.08841 9.73091 3914 ft 240 kts 266°
2026-05-04 16:17 57.08534 9.66881 3929 ft 244 kts 267°
2026-05-04 16:18 57.11447 9.60200 3935 ft 255 kts 348°
2026-05-04 16:18 57.13224 9.60520 3951 ft 264 kts 14°
2026-05-04 16:19 57.18216 9.65131 3946 ft 270 kts 24°
2026-05-04 16:19 57.21468 9.68481 3919 ft 273 kts 31°
2026-05-04 16:20 57.23533 9.78170 3932 ft 283 kts 84°
2026-05-04 16:20 57.23879 9.85432 3938 ft 283 kts 84°
2026-05-04 16:21 57.24391 9.96284 3939 ft 283 kts 84°
2026-05-04 16:22 57.24732 10.03505 3832 ft 277 kts 84°
2026-05-04 16:22 57.24364 10.13907 2823 ft 283 kts 122°
2026-05-04 16:23 57.19695 10.19141 2107 ft 251 kts 164°
2026-05-04 16:24 57.14638 10.16786 2004 ft 172 kts 234°
2026-05-04 16:25 57.13076 10.13425 2004 ft 173 kts 234°
2026-05-04 16:26 57.10775 10.06814 2023 ft 167 kts 270°
2026-05-04 16:26 57.10460 10.00502 1542 ft 157 kts 265°
2026-05-04 16:27 57.10240 9.96849 1100 ft 128 kts 264°
2026-05-04 16:28 57.09953 9.92352 544 ft 110 kts 266°
2026-05-04 16:28 57.09681 9.88188 103 ft 108 kts 265°
2026-05-04 16:29 57.09309 9.81494 1907 ft 194 kts 268°
2026-05-04 16:30 57.08902 9.72914 2955 ft 242 kts 265°
2026-05-04 16:31 57.08795 9.66740 3008 ft 243 kts 284°
2026-05-04 16:31 57.12808 9.62129 3008 ft 259 kts
2026-05-04 16:32 57.17792 9.66346 3004 ft 265 kts 24°
2026-05-04 16:33 57.21031 9.69487 3010 ft 265 kts 24°
2026-05-04 16:33 57.23471 9.74519 3006 ft 276 kts 72°
2026-05-04 16:34 57.24014 9.81543 3003 ft 277 kts 84°
2026-05-04 16:34 57.24189 9.85087 3009 ft 277 kts 84°
2026-05-04 16:35 57.24718 9.95657 3002 ft 276 kts 84°
2026-05-04 16:35 57.25228 10.06159 2492 ft 264 kts 84°
2026-05-04 16:36 57.25386 10.09567 2101 ft 268 kts 84°
2026-05-04 16:36 57.24359 10.15996 1992 ft 258 kts 135°
2026-05-04 16:37 57.21404 10.18150 1998 ft 215 kts 182°
2026-05-04 16:37 57.19955 10.18193 2009 ft 202 kts 184°
2026-05-04 16:37 57.17389 10.17644 2003 ft 179 kts 216°
2026-05-04 16:38 57.15691 10.14466 2003 ft 175 kts 234°
2026-05-04 16:39 57.13388 10.09257 2003 ft 174 kts 234°
2026-05-04 16:39 57.11856 10.05819 2002 ft 167 kts 234°
2026-05-04 16:40 57.10546 10.02702 1822 ft 142 kts 248°
2026-05-04 16:40 57.10394 9.99367 1425 ft 133 kts 269°
2026-05-04 16:41 57.10188 9.96190 1030 ft 120 kts 266°
2026-05-04 16:41 57.09912 9.91827 431 ft 112 kts 265°
2026-05-04 16:42 57.09636 9.87520 46 ft 113 kts 265°
2026-05-04 16:43 57.09453 9.84553 663 ft 146 kts 265°
2026-05-04 16:43 57.09213 9.80086 2164 ft 205 kts 264°
2026-05-04 16:43 57.09060 9.77284 2475 ft 234 kts 264°
2026-05-04 16:44 57.09770 9.65254 3102 ft 252 kts 314°
2026-05-04 16:45 57.13091 9.63567 3108 ft 264 kts
2026-05-04 16:46 57.18156 9.67776 3103 ft 267 kts 24°
2026-05-04 16:46 57.21490 9.70862 3106 ft 267 kts 24°
2026-05-04 16:47 57.24602 9.74495 3104 ft 272 kts 48°
2026-05-04 16:47 57.25780 9.81050 3098 ft 273 kts 83°
2026-05-04 16:48 57.26363 9.91546 3098 ft 275 kts 84°
2026-05-04 16:48 57.26552 9.95057 3098 ft 274 kts 84°
2026-05-04 16:49 57.26930 10.02065 2999 ft 271 kts 84°
2026-05-04 16:49 57.27275 10.08687 2544 ft 256 kts 87°
2026-05-04 16:50 57.25844 10.14392 1996 ft 241 kts 147°
2026-05-04 16:50 57.22978 10.14894 2009 ft 195 kts 212°
2026-05-04 16:51 57.20644 10.13161 2009 ft 182 kts 188°
2026-05-04 16:51 57.19372 10.13070 2013 ft 183 kts 185°
2026-05-04 16:51 57.16821 10.12998 2002 ft 183 kts 185°
2026-05-04 16:52 57.14270 10.12929 2006 ft 183 kts 184°
2026-05-04 16:52 57.13061 10.12457 2002 ft 181 kts 211°
2026-05-04 16:53 57.11368 10.09221 2002 ft 172 kts 233°
2026-05-04 16:53 57.10105 10.04376 2002 ft 120 kts 280°
2026-05-04 16:54 57.10299 10.02938 1859 ft 115 kts 284°
2026-05-04 16:55 57.10244 9.96976 1142 ft 124 kts 264°
2026-05-04 16:55 57.10051 9.93938 761 ft 116 kts 264°
2026-05-04 16:56 57.09866 9.91054 425 ft 113 kts 265°
2026-05-04 16:56 57.09596 9.86836 26 ft 102 kts 262°
2026-05-04 16:57 57.09515 9.85530 49 ft 129 kts 265°
2026-05-04 16:57 57.09232 9.81007 1325 ft 220 kts 263°
2026-05-04 16:58 57.08283 9.72071 3637 ft 247 kts 242°
2026-05-04 16:58 57.07161 9.69652 4485 ft 253 kts 217°
2026-05-04 16:59 57.03705 9.68736 6131 ft 267 kts 168°
2026-05-04 17:00 56.97116 9.75832 9276 ft 282 kts 161°
2026-05-04 17:00 56.91282 9.79381 10789 ft 318 kts 168°
2026-05-04 17:01 56.86829 9.81704 11632 ft 341 kts 168°
2026-05-04 17:01 56.82245 9.84176 12970 ft 345 kts 168°
2026-05-04 17:02 56.77614 9.86719 14197 ft 350 kts 168°
2026-05-04 17:02 56.72900 9.89304 15253 ft 357 kts 168°
2026-05-04 17:03 56.70505 9.90613 15784 ft 361 kts 168°
2026-05-04 17:03 56.68087 9.91931 16324 ft 364 kts 168°
2026-05-04 17:03 56.63176 9.94603 17405 ft 371 kts 168°
2026-05-04 17:04 56.58217 9.97293 18406 ft 378 kts 168°
2026-05-04 17:04 56.53072 9.99294 19352 ft 376 kts 180°
2026-05-04 17:05 56.47825 9.99648 20315 ft 378 kts 184°
2026-05-04 17:05 56.42526 9.99585 21265 ft 383 kts 185°
2026-05-04 17:06 56.37169 9.99494 22192 ft 387 kts 185°
2026-05-04 17:06 56.34471 9.99470 22650 ft 390 kts 184°
2026-05-04 17:07 56.29002 9.99451 23525 ft 395 kts 184°
2026-05-04 17:07 56.27181 9.99449 23775 ft 396 kts 184°
2026-05-04 17:07 56.23478 9.99448 24296 ft 399 kts 184°
2026-05-04 17:07 56.20697 9.99448 24696 ft 400 kts 184°
2026-05-04 17:08 56.17907 9.99447 25104 ft 402 kts 184°
2026-05-04 17:08 56.12285 9.99442 25973 ft 405 kts 184°
2026-05-04 17:08 56.09500 9.99438 26406 ft 407 kts 184°
2026-05-04 17:09 56.06657 9.99430 26888 ft 409 kts 184°
2026-05-04 17:09 56.03804 9.99429 27374 ft 411 kts 184°
2026-05-04 17:09 56.00926 9.99432 27895 ft 414 kts 184°
2026-05-04 17:10 55.95135 9.99438 28924 ft 419 kts 184°
2026-05-04 17:10 55.86300 9.99438 30463 ft 428 kts 184°
2026-05-04 17:11 55.83308 9.99431 30912 ft 431 kts 184°
2026-05-04 17:11 55.80302 9.99426 31369 ft 433 kts 184°
2026-05-04 17:11 55.75264 9.99420 32171 ft 436 kts 185°
2026-05-04 17:12 55.72253 9.99424 33108 ft 426 kts 185°
2026-05-04 17:12 55.66527 9.99452 35316 ft 398 kts 185°
2026-05-04 17:13 55.58596 9.99458 37980 ft 364 kts 186°
2026-05-04 17:14 55.51237 9.99432 38966 ft 346 kts 186°
2026-05-04 17:14 55.48822 9.99421 38961 ft 345 kts 186°
2026-05-04 17:15 55.41755 9.99405 38962 ft 337 kts 186°
2026-05-04 17:16 55.32376 9.99386 38964 ft 337 kts 186°
2026-05-04 17:16 55.25084 9.99357 38959 ft 362 kts 185°
2026-05-04 17:17 55.22532 9.99349 38968 ft 371 kts 185°
2026-05-04 17:17 55.14483 9.99335 38977 ft 400 kts 185°
2026-05-04 17:18 55.11665 9.99333 38979 ft 409 kts 185°
2026-05-04 17:18 55.05865 9.99331 39135 ft 423 kts 184°
2026-05-04 17:19 54.99881 9.99330 39353 ft 436 kts 184°
2026-05-04 17:19 54.93768 9.99327 39572 ft 447 kts 184°
2026-05-04 17:20 54.87535 9.98333 39759 ft 454 kts 193°
2026-05-04 17:20 54.81272 9.96389 40096 ft 460 kts 194°
2026-05-04 17:20 54.78124 9.95337 40335 ft 461 kts 194°
2026-05-04 17:21 54.71801 9.93223 40825 ft 463 kts 194°
2026-05-04 17:21 54.65488 9.91149 40988 ft 465 kts 193°
2026-05-04 17:22 54.59124 9.89099 40986 ft 465 kts 193°
2026-05-04 17:23 54.49446 9.87400 40992 ft 472 kts 178°
2026-05-04 17:23 54.46184 9.88239 40993 ft 475 kts 172°
2026-05-04 17:24 54.36504 9.92260 40990 ft 478 kts 169°
2026-05-04 17:25 54.23605 9.97898 40990 ft 478 kts 169°
2026-05-04 17:26 54.10690 10.03353 40987 ft 478 kts 169°
2026-05-04 17:27 53.94566 10.10110 40982 ft 478 kts 169°
2026-05-04 17:28 53.81633 10.15495 40970 ft 478 kts 169°
2026-05-04 17:29 53.62277 10.23489 40965 ft 478 kts 169°
2026-05-04 17:31 53.46100 10.30114 40964 ft 479 kts 169°
2026-05-04 17:32 53.29917 10.36689 40965 ft 478 kts 169°
2026-05-04 17:33 53.16855 10.41956 40955 ft 485 kts 170°
2026-05-04 17:34 53.03734 10.47222 40942 ft 484 kts 170°
2026-05-04 17:35 52.87419 10.53717 40943 ft 483 kts 170°
2026-05-04 17:36 52.80887 10.56301 40944 ft 482 kts 170°
2026-05-04 17:36 52.74361 10.58876 40957 ft 482 kts 170°
2026-05-04 17:37 52.67844 10.61441 40952 ft 482 kts 170°
2026-05-04 17:37 52.61318 10.64001 40958 ft 481 kts 170°
2026-05-04 17:38 52.54804 10.66549 40952 ft 481 kts 170°
2026-05-04 17:38 52.48331 10.69073 40945 ft 480 kts 170°
2026-05-04 17:39 52.38586 10.72858 40942 ft 480 kts 170°
2026-05-04 17:39 52.32084 10.75374 40940 ft 479 kts 170°
2026-05-04 17:40 52.25585 10.77882 40944 ft 479 kts 170°
2026-05-04 17:40 52.19094 10.80379 40950 ft 479 kts 170°
2026-05-04 17:41 52.12660 10.83302 40954 ft 483 kts 161°
2026-05-04 17:41 52.06574 10.88083 40963 ft 486 kts 156°
2026-05-04 17:42 52.00635 10.93245 40964 ft 487 kts 155°
2026-05-04 17:42 51.94663 10.98472 40963 ft 487 kts 155°
2026-05-04 17:43 51.88684 11.03646 40955 ft 487 kts 155°
2026-05-04 17:43 51.82689 11.08801 40950 ft 488 kts 155°
2026-05-04 17:44 51.76689 11.13923 40952 ft 488 kts 155°
2026-05-04 17:44 51.70688 11.19028 40951 ft 488 kts 155°
2026-05-04 17:45 51.64685 11.24126 40954 ft 488 kts 155°
2026-05-04 17:45 51.58685 11.29210 40959 ft 488 kts 155°
2026-05-04 17:46 51.52708 11.34261 40968 ft 487 kts 155°
2026-05-04 17:46 51.46699 11.39322 40973 ft 488 kts 155°
2026-05-04 17:47 51.40675 11.44381 40970 ft 487 kts 156°
2026-05-04 17:47 51.34664 11.49408 40966 ft 487 kts 156°
2026-05-04 17:48 51.28646 11.54407 40969 ft 488 kts 156°
2026-05-04 17:48 51.22617 11.59401 40966 ft 487 kts 156°
2026-05-04 17:49 51.16625 11.64329 40966 ft 487 kts 157°
2026-05-04 17:49 51.10263 11.67665 40966 ft 478 kts 174°
2026-05-04 17:50 51.03671 11.68513 40966 ft 475 kts 181°
2026-05-04 17:50 50.97063 11.68832 40965 ft 474 kts 181°
2026-05-04 17:51 50.90508 11.69109 40964 ft 474 kts 181°
2026-05-04 17:51 50.83908 11.69441 40969 ft 474 kts 181°
2026-05-04 17:52 50.77310 11.69802 40965 ft 474 kts 181°
2026-05-04 17:52 50.70710 11.70607 40967 ft 478 kts 172°
2026-05-04 17:53 50.64264 11.73272 40967 ft 481 kts 165°
2026-05-04 17:53 50.57900 11.76624 40964 ft 482 kts 164°
2026-05-04 17:54 50.51624 11.79977 40603 ft 476 kts 164°
2026-05-04 17:54 50.48480 11.81666 39989 ft 475 kts 164°
2026-05-04 17:54 50.45349 11.83362 39362 ft 475 kts 164°
2026-05-04 17:55 50.42234 11.85063 38781 ft 474 kts 164°
2026-05-04 17:55 50.39126 11.86775 38189 ft 472 kts 164°
2026-05-04 17:55 50.36008 11.88494 37967 ft 476 kts 164°
2026-05-04 17:55 50.32866 11.90222 37959 ft 478 kts 164°
2026-05-04 17:56 50.26591 11.93664 37965 ft 478 kts 164°
2026-05-04 17:56 50.20346 11.97080 37964 ft 478 kts 164°
2026-05-04 17:57 50.17217 11.98788 37654 ft 476 kts 164°
2026-05-04 17:57 50.14092 12.00491 37243 ft 476 kts 164°
2026-05-04 17:57 50.10953 12.02196 36841 ft 478 kts 164°
2026-05-04 17:57 50.07821 12.03894 36444 ft 478 kts 164°
2026-05-04 17:58 50.04668 12.05598 36039 ft 479 kts 164°
2026-05-04 17:58 50.01524 12.07290 35652 ft 479 kts 164°
2026-05-04 17:58 49.98372 12.08983 35086 ft 479 kts 164°
2026-05-04 17:58 49.96282 12.10102 34678 ft 479 kts 164°
2026-05-04 17:59 49.93133 12.11781 34071 ft 479 kts 164°
2026-05-04 17:59 49.89909 12.13158 33377 ft 476 kts 171°
2026-05-04 17:59 49.83363 12.14434 32049 ft 478 kts 178°
2026-05-04 18:00 49.80125 12.14808 31421 ft 482 kts 179°
2026-05-04 18:00 49.76724 12.15143 30782 ft 486 kts 179°
2026-05-04 18:00 49.73335 12.15462 30158 ft 490 kts 179°
2026-05-04 18:00 49.69964 12.15787 29471 ft 493 kts 179°
2026-05-04 18:01 49.66551 12.16132 28765 ft 485 kts 179°
2026-05-04 18:01 49.63176 12.16485 28149 ft 489 kts 179°
2026-05-04 18:01 49.59820 12.16845 27473 ft 477 kts 178°
2026-05-04 18:02 49.53166 12.17562 26978 ft 477 kts 178°
2026-05-04 18:02 49.49867 12.17918 26967 ft 474 kts 178°
2026-05-04 18:02 49.46575 12.18271 26964 ft 473 kts 178°
2026-05-04 18:02 49.43284 12.18623 26948 ft 473 kts 178°
2026-05-04 18:03 49.40005 12.18972 26627 ft 471 kts 178°
2026-05-04 18:03 49.36740 12.19320 25988 ft 470 kts 178°
2026-05-04 18:03 49.33521 12.19662 25266 ft 463 kts 178°
2026-05-04 18:03 49.30310 12.20004 24553 ft 463 kts 178°
2026-05-04 18:04 49.27128 12.20342 23859 ft 456 kts 178°
2026-05-04 18:04 49.23951 12.20678 23093 ft 453 kts 178°
2026-05-04 18:04 49.17772 12.21333 21498 ft 440 kts 178°
2026-05-04 18:05 49.14730 12.21652 20727 ft 436 kts 178°
2026-05-04 18:05 49.11722 12.21968 19993 ft 433 kts 178°
2026-05-04 18:05 49.08711 12.22283 19299 ft 432 kts 178°
2026-05-04 18:05 49.05737 12.22595 18597 ft 425 kts 178°
2026-05-04 18:06 48.99924 12.23207 17065 ft 412 kts 178°
2026-05-04 18:06 48.97091 12.23503 16300 ft 406 kts 178°
2026-05-04 18:06 48.94291 12.23794 15540 ft 399 kts 178°
2026-05-04 18:07 48.91543 12.24080 14801 ft 393 kts 178°
2026-05-04 18:07 48.88840 12.24362 14097 ft 387 kts 177°
2026-05-04 18:07 48.86176 12.24640 13343 ft 380 kts 177°
2026-05-04 18:07 48.83559 12.24913 12570 ft 375 kts 177°
2026-05-04 18:08 48.80970 12.25184 11802 ft 371 kts 177°
2026-05-04 18:08 48.78502 12.25443 11234 ft 344 kts 177°
2026-05-04 18:08 48.76248 12.25686 10996 ft 305 kts 177°
2026-05-04 18:08 48.74220 12.25904 10947 ft 287 kts 178°
2026-05-04 18:09 48.70299 12.26307 10924 ft 280 kts 178°
2026-05-04 18:09 48.66445 12.26700 10310 ft 277 kts 178°
2026-05-04 18:10 48.64512 12.26897 9948 ft 279 kts 178°
2026-05-04 18:10 48.62571 12.27095 9548 ft 279 kts 178°
2026-05-04 18:10 48.60642 12.27287 9167 ft 278 kts 178°
2026-05-04 18:10 48.58729 12.27466 8795 ft 277 kts 178°
2026-05-04 18:11 48.56854 12.27881 8418 ft 278 kts 163°
2026-05-04 18:11 48.55144 12.29261 8043 ft 279 kts 147°
2026-05-04 18:11 48.53578 12.30990 7670 ft 279 kts 144°
2026-05-04 18:11 48.52032 12.32748 7303 ft 278 kts 144°
2026-05-04 18:12 48.50490 12.34492 6930 ft 277 kts 144°
2026-05-04 18:12 48.48945 12.36220 6576 ft 275 kts 144°
2026-05-04 18:12 48.47326 12.37717 6212 ft 274 kts 159°
2026-05-04 18:12 48.45461 12.38103 6021 ft 272 kts 185°
2026-05-04 18:13 48.43644 12.37496 5988 ft 261 kts 202°
2026-05-04 18:13 48.42236 12.35946 6007 ft 244 kts 228°
2026-05-04 18:13 48.40609 12.31591 5996 ft 242 kts 256°
2026-05-04 18:14 48.40308 12.29111 6000 ft 237 kts 262°
2026-05-04 18:14 48.40120 12.26728 6001 ft 226 kts 263°
2026-05-04 18:14 48.39951 12.24411 6029 ft 220 kts 263°
2026-05-04 18:15 48.39597 12.19849 6007 ft 220 kts 262°
2026-05-04 18:15 48.39219 12.15272 5842 ft 214 kts 262°
2026-05-04 18:15 48.39049 12.13095 5550 ft 209 kts 263°
2026-05-04 18:16 48.38890 12.10950 5237 ft 206 kts 263°
2026-05-04 18:16 48.38731 12.08860 4934 ft 193 kts 263°
2026-05-04 18:16 48.38578 12.06874 4670 ft 190 kts 263°
2026-05-04 18:17 48.38282 12.02986 4167 ft 186 kts 263°
2026-05-04 18:17 48.38135 12.01066 3936 ft 184 kts 263°
2026-05-04 18:17 48.37850 11.97341 3468 ft 170 kts 264°
2026-05-04 18:18 48.37718 11.95626 3252 ft 158 kts 264°
2026-05-04 18:18 48.37597 11.94046 3053 ft 148 kts 264°
2026-05-04 18:18 48.37477 11.92536 2846 ft 142 kts 264°
2026-05-04 18:18 48.37363 11.91085 2646 ft 137 kts 265°
2026-05-04 18:19 48.37159 11.88334 2305 ft 130 kts 264°
2026-05-04 18:19 48.37048 11.86983 2150 ft 130 kts 264°
2026-05-04 18:19 48.36947 11.85660 1984 ft 129 kts 265°
2026-05-04 18:20 48.36843 11.84326 1797 ft 127 kts 264°
2026-05-04 18:20 48.36750 11.83009 1651 ft 127 kts 265°
2026-05-04 18:20 48.36652 11.81684 1508 ft 127 kts 264°
2026-05-04 18:20 48.36556 11.80412 1526 ft 131 kts 264°
2026-05-04 18:21 48.36431 11.78760 2040 ft 173 kts 264°
2026-05-04 18:21 48.36297 11.76886 2472 ft 191 kts 264°
2026-05-04 18:21 48.36147 11.74752 2725 ft 219 kts 264°
2026-05-04 18:21 48.35979 11.72365 3125 ft 242 kts 264°
2026-05-04 18:22 48.35793 11.69726 3496 ft 263 kts 264°
2026-05-04 18:22 48.35601 11.66939 3893 ft 270 kts 264°
2026-05-04 18:22 48.35411 11.64113 4316 ft 272 kts 264°
2026-05-04 18:22 48.35228 11.61280 4742 ft 274 kts 264°
2026-05-04 18:23 48.35048 11.58423 4972 ft 275 kts 264°
2026-05-04 18:23 48.34871 11.55564 5010 ft 275 kts 264°
2026-05-04 18:23 48.34694 11.52692 5010 ft 275 kts 264°
2026-05-04 18:23 48.34521 11.49859 5011 ft 276 kts 264°
2026-05-04 18:24 48.34345 11.46984 5012 ft 276 kts 264°
2026-05-04 18:24 48.34169 11.44110 5015 ft 276 kts 264°
2026-05-04 18:24 48.34051 11.41238 5008 ft 276 kts 271°
2026-05-04 18:24 48.34551 11.38468 5047 ft 277 kts 298°
2026-05-04 18:25 48.35846 11.36331 5436 ft 281 kts 327°
2026-05-04 18:25 48.37668 11.35318 6309 ft 282 kts 352°
2026-05-04 18:25 48.39616 11.35568 7086 ft 285 kts 17°
2026-05-04 18:25 48.41352 11.37023 7665 ft 289 kts 41°
2026-05-04 18:26 48.42716 11.39262 7919 ft 292 kts 52°
2026-05-04 18:26 48.43962 11.41697 7940 ft 293 kts 54°
2026-05-04 18:26 48.45182 11.44131 7941 ft 294 kts 54°
2026-05-04 18:26 48.46411 11.46587 7938 ft 294 kts 54°
2026-05-04 18:27 48.47625 11.49060 7939 ft 294 kts 56°
2026-05-04 18:27 48.48436 11.51859 7938 ft 291 kts 81°
2026-05-04 18:27 48.48580 11.54877 7939 ft 288 kts 92°
2026-05-04 18:27 48.48538 11.57885 7934 ft 288 kts 94°
2026-05-04 18:28 48.48473 11.60909 7934 ft 288 kts 94°
2026-05-04 18:28 48.48406 11.63921 7938 ft 288 kts 94°
2026-05-04 18:28 48.48337 11.66938 7938 ft 288 kts 94°
2026-05-04 18:28 48.48267 11.69958 7938 ft 288 kts 94°
2026-05-04 18:29 48.48196 11.72971 7936 ft 288 kts 94°
2026-05-04 18:29 48.48124 11.75947 7939 ft 288 kts 94°
2026-05-04 18:29 48.48050 11.78968 7937 ft 288 kts 94°
2026-05-04 18:29 48.47976 11.81983 7939 ft 288 kts 94°
2026-05-04 18:30 48.47823 11.88015 7940 ft 287 kts 94°
2026-05-04 18:30 48.47743 11.91019 7865 ft 285 kts 94°
2026-05-04 18:30 48.47662 11.93992 7437 ft 283 kts 94°
2026-05-04 18:31 48.47571 11.96947 7002 ft 282 kts 94°
2026-05-04 18:31 48.47471 11.99879 6594 ft 279 kts 94°
2026-05-04 18:31 48.47365 12.02788 6178 ft 277 kts 94°
2026-05-04 18:31 48.47254 12.05643 5750 ft 274 kts 94°
2026-05-04 18:32 48.47136 12.08503 5329 ft 272 kts 94°
2026-05-04 18:32 48.47015 12.11350 5056 ft 270 kts 94°
2026-05-04 18:32 48.46890 12.14180 5001 ft 271 kts 94°
2026-05-04 18:32 48.46763 12.17014 5002 ft 271 kts 94°
2026-05-04 18:33 48.46635 12.19838 5002 ft 270 kts 94°
2026-05-04 18:33 48.46508 12.22665 4999 ft 270 kts 94°
2026-05-04 18:33 48.46379 12.25495 4998 ft 270 kts 94°
2026-05-04 18:33 48.46251 12.28290 4993 ft 261 kts 94°
2026-05-04 18:34 48.46130 12.30924 4999 ft 243 kts 94°
2026-05-04 18:34 48.46019 12.33336 4828 ft 221 kts 94°
2026-05-04 18:34 48.45915 12.35523 4644 ft 203 kts 94°
2026-05-04 18:34 48.45722 12.37556 4364 ft 191 kts 109°
2026-05-04 18:35 48.44930 12.39075 4060 ft 184 kts 148°
2026-05-04 18:35 48.43693 12.39475 3996 ft 186 kts 187°
2026-05-04 18:35 48.42543 12.38640 4003 ft 186 kts 223°
2026-05-04 18:35 48.41707 12.37134 3979 ft 188 kts 238°
2026-05-04 18:36 48.41109 12.35383 3981 ft 189 kts 248°
2026-05-04 18:36 48.40734 12.33493 3988 ft 189 kts 258°
2026-05-04 18:36 48.40516 12.31552 3995 ft 189 kts 262°
2026-05-04 18:36 48.40345 12.29539 4014 ft 205 kts 263°
2026-05-04 18:37 48.40165 12.27235 3984 ft 233 kts 263°
2026-05-04 18:37 48.39968 12.24773 3974 ft 239 kts 263°
2026-05-04 18:37 48.39770 12.22320 3976 ft 240 kts 263°
2026-05-04 18:37 48.39571 12.19822 3975 ft 238 kts 263°
2026-05-04 18:38 48.39384 12.17435 3976 ft 223 kts 263°
2026-05-04 18:38 48.39208 12.15149 3993 ft 218 kts 263°
2026-05-04 18:38 48.39036 12.12891 3988 ft 211 kts 263°
2026-05-04 18:38 48.38876 12.10773 3988 ft 197 kts 263°
2026-05-04 18:39 48.38723 12.08784 3998 ft 187 kts 263°
2026-05-04 18:39 48.38576 12.06850 4003 ft 187 kts 263°
2026-05-04 18:39 48.38429 12.04906 4000 ft 187 kts 263°
2026-05-04 18:39 48.38281 12.02959 3999 ft 187 kts 263°
2026-05-04 18:40 48.38133 12.01033 4044 ft 184 kts 263°
2026-05-04 18:40 48.37987 11.99120 3799 ft 186 kts 263°
2026-05-04 18:40 48.37838 11.97164 3471 ft 188 kts 263°
2026-05-04 18:40 48.37693 11.95271 3214 ft 176 kts 263°
2026-05-04 18:41 48.37559 11.93548 2968 ft 160 kts 264°
2026-05-04 18:41 48.37432 11.91912 2759 ft 154 kts 264°
2026-05-04 18:41 48.37309 11.90356 2559 ft 146 kts 264°
2026-05-04 18:41 48.37196 11.88874 2375 ft 139 kts 265°
2026-05-04 18:42 48.37092 11.87466 2185 ft 132 kts 265°
2026-05-04 18:42 48.36988 11.86122 2001 ft 128 kts 265°
2026-05-04 18:42 48.36887 11.84803 1848 ft 127 kts 264°
2026-05-04 18:42 48.36785 11.83492 1689 ft 126 kts 265°
2026-05-04 18:43 48.36688 11.82177 1540 ft 126 kts 264°
2026-05-04 18:43 48.36624 11.81318 1479 ft 121 kts 264°
2026-05-04 18:43 48.36491 11.79604 1589 ft 162 kts 264°
2026-05-04 18:43 48.36309 11.77668 2360 ft 211 kts 262°
2026-05-04 18:44 48.36064 11.75186 3165 ft 264 kts 263°
2026-05-04 18:44 48.35991 11.74259 3373 ft 262 kts 264°
2026-05-04 18:44 48.35775 11.70825 4144 ft 243 kts 266°
2026-05-04 18:44 48.35935 11.68297 4941 ft 244 kts 285°
2026-05-04 18:45 48.36543 11.65933 5885 ft 242 kts 294°
2026-05-04 18:45 48.37323 11.63681 6745 ft 243 kts 298°
2026-05-04 18:45 48.38200 11.61475 7183 ft 253 kts 299°
2026-05-04 18:45 48.39154 11.59198 6743 ft 262 kts 301°
2026-05-04 18:46 48.40165 11.56843 7035 ft 277 kts 301°
2026-05-04 18:46 48.41221 11.54369 7656 ft 284 kts 300°
2026-05-04 18:46 48.42261 11.51884 8604 ft 281 kts 299°
2026-05-04 18:46 48.43303 11.49358 9525 ft 282 kts 297°
2026-05-04 18:47 48.44341 11.46827 10302 ft 289 kts 298°
2026-05-04 18:47 48.45676 11.44408 10643 ft 315 kts 314°
2026-05-04 18:47 48.47625 11.42650 10931 ft 341 kts 335°
2026-05-04 18:47 48.49921 11.41570 11357 ft 355 kts 344°
2026-05-04 18:48 48.52374 11.40842 11970 ft 362 kts 348°
2026-05-04 18:48 48.54886 11.40273 12621 ft 367 kts 350°
2026-05-04 18:48 48.57436 11.39731 13271 ft 371 kts 350°
2026-05-04 18:48 48.59999 11.39156 13895 ft 375 kts 349°
2026-05-04 18:49 48.62591 11.38526 14481 ft 378 kts 348°
2026-05-04 18:49 48.65193 11.37851 15105 ft 380 kts 348°
2026-05-04 18:49 48.67767 11.37141 15704 ft 382 kts 346°
2026-05-04 18:49 48.70282 11.35895 16325 ft 380 kts 332°
2026-05-04 18:50 48.72619 11.34017 16922 ft 381 kts 327°
2026-05-04 18:50 48.74876 11.31907 17550 ft 382 kts 324°
2026-05-04 18:50 48.77100 11.29659 18169 ft 384 kts 323°
2026-05-04 18:50 48.79311 11.27355 18684 ft 387 kts 322°
2026-05-04 18:51 48.81532 11.25026 19178 ft 390 kts 323°
2026-05-04 18:51 48.83759 11.22635 19647 ft 393 kts 319°
2026-05-04 18:51 48.85860 11.19970 20143 ft 395 kts 316°
2026-05-04 18:51 48.87928 11.17202 20635 ft 397 kts 315°
2026-05-04 18:52 48.89980 11.14372 21103 ft 400 kts 315°
2026-05-04 18:52 48.92036 11.11495 21602 ft 403 kts 314°
2026-05-04 18:52 48.94072 11.08551 22069 ft 405 kts 311°
2026-05-04 18:52 48.95834 11.05198 22531 ft 404 kts 300°
2026-05-04 18:53 48.97131 11.01411 23013 ft 404 kts 290°
2026-05-04 18:53 48.98174 10.97437 23489 ft 406 kts 288°
2026-05-04 18:53 48.99116 10.93368 23902 ft 408 kts 286°
2026-05-04 18:53 49.00007 10.89258 24319 ft 410 kts 285°
2026-05-04 18:54 49.00889 10.85109 24758 ft 412 kts 285°
2026-05-04 18:54 49.01777 10.80953 25184 ft 414 kts 285°
2026-05-04 18:54 49.02678 10.76783 25616 ft 416 kts 285°
2026-05-04 18:54 49.03595 10.72582 26087 ft 418 kts 285°
2026-05-04 18:55 49.04672 10.68497 26564 ft 424 kts 293°
2026-05-04 18:55 49.08184 10.61167 27581 ft 435 kts 310°
2026-05-04 18:55 49.10314 10.57843 28126 ft 439 kts 312°
2026-05-04 18:56 49.12515 10.54579 28684 ft 442 kts 313°
2026-05-04 18:56 49.14752 10.51330 29243 ft 446 kts 313°
2026-05-04 18:56 49.17013 10.48050 29782 ft 449 kts 313°
2026-05-04 18:56 49.19280 10.44737 30331 ft 453 kts 313°
2026-05-04 18:57 49.21558 10.41378 30811 ft 456 kts 312°
2026-05-04 18:57 49.23766 10.37890 31302 ft 457 kts 307°
2026-05-04 18:57 49.25834 10.34183 31781 ft 460 kts 306°
2026-05-04 18:57 49.27886 10.30405 32239 ft 463 kts 306°
2026-05-04 18:58 49.29939 10.26568 32690 ft 466 kts 306°
2026-05-04 18:58 49.31966 10.22754 33120 ft 469 kts 305°
2026-05-04 18:58 49.34035 10.18850 33566 ft 472 kts 305°
2026-05-04 18:58 49.36116 10.14922 33907 ft 476 kts 305°
2026-05-04 18:59 49.40306 10.07028 33968 ft 477 kts 305°
2026-05-04 18:59 49.44492 9.99112 33966 ft 477 kts 305°
2026-05-04 19:00 49.48674 9.91178 33966 ft 477 kts 305°
2026-05-04 19:00 49.52821 9.83289 33972 ft 477 kts 305°
2026-05-04 19:01 49.56993 9.75329 33968 ft 477 kts 305°
2026-05-04 19:01 49.61156 9.67362 33962 ft 477 kts 305°
2026-05-04 19:02 49.65331 9.59351 33971 ft 477 kts 304°
2026-05-04 19:02 49.69375 9.51233 33980 ft 474 kts 298°
2026-05-04 19:03 49.72737 9.42610 33517 ft 464 kts 296°
2026-05-04 19:03 49.74351 9.38279 32836 ft 467 kts 296°
2026-05-04 19:03 49.75968 9.33871 32280 ft 476 kts 296°
2026-05-04 19:04 49.77605 9.29393 31754 ft 481 kts 296°
2026-05-04 19:04 49.79256 9.24883 31234 ft 483 kts 296°
2026-05-04 19:04 49.80926 9.20336 30728 ft 485 kts 296°
2026-05-04 19:04 49.82595 9.15798 30234 ft 486 kts 296°
2026-05-04 19:05 49.84273 9.11233 29696 ft 487 kts 296°
2026-05-04 19:05 49.85931 9.06717 29136 ft 486 kts 296°
2026-05-04 19:05 49.87621 9.02111 28574 ft 484 kts 296°
2026-05-04 19:05 49.89254 8.97647 28065 ft 481 kts 296°
2026-05-04 19:06 49.90916 8.93098 27516 ft 478 kts 296°
2026-05-04 19:06 49.92544 8.88628 27006 ft 475 kts 296°
2026-05-04 19:06 49.94146 8.84223 26500 ft 472 kts 296°
2026-05-04 19:06 49.95754 8.79794 26002 ft 470 kts 296°
2026-05-04 19:07 49.97357 8.75373 25513 ft 467 kts 296°
2026-05-04 19:07 49.98947 8.70977 25027 ft 465 kts 296°
2026-05-04 19:07 50.00522 8.66615 24553 ft 462 kts 296°
2026-05-04 19:07 50.02091 8.62263 24146 ft 460 kts 296°
2026-05-04 19:08 50.03696 8.57965 23992 ft 461 kts 300°
2026-05-04 19:08 50.05720 8.54090 23962 ft 465 kts 312°
2026-05-04 19:08 50.08280 8.50957 23980 ft 469 kts 325°
2026-05-04 19:08 50.11085 8.48473 23964 ft 470 kts 329°
2026-05-04 19:09 50.13979 8.46064 23955 ft 470 kts 329°
2026-05-04 19:09 50.16865 8.43664 23957 ft 470 kts 329°
2026-05-04 19:09 50.19755 8.41250 23959 ft 470 kts 329°
2026-05-04 19:09 50.22647 8.38827 23904 ft 470 kts 329°
2026-05-04 19:10 50.25520 8.36415 23671 ft 469 kts 329°
2026-05-04 19:10 50.28393 8.33996 23428 ft 468 kts 329°
2026-05-04 19:10 50.31261 8.31577 23165 ft 467 kts 329°
2026-05-04 19:10 50.34075 8.29201 22655 ft 464 kts 329°
2026-05-04 19:11 50.36906 8.26807 22005 ft 460 kts 329°
2026-05-04 19:11 50.39713 8.24430 21364 ft 456 kts 329°
2026-05-04 19:11 50.42490 8.22075 20734 ft 451 kts 329°
2026-05-04 19:11 50.45227 8.19751 20057 ft 442 kts 329°
2026-05-04 19:12 50.47930 8.17454 19223 ft 436 kts 329°
2026-05-04 19:12 50.53254 8.12917 17496 ft 429 kts 329°
2026-05-04 19:12 50.55863 8.10690 16596 ft 425 kts 329°
2026-05-04 19:13 50.58445 8.08483 15708 ft 419 kts 329°
2026-05-04 19:13 50.61020 8.06277 14878 ft 421 kts 329°
2026-05-04 19:13 50.63581 8.04082 14045 ft 416 kts 329°
2026-05-04 19:13 50.66095 8.01927 13143 ft 401 kts 329°
2026-05-04 19:14 50.68438 7.99925 12290 ft 367 kts 328°
2026-05-04 19:14 50.70578 7.98090 11555 ft 339 kts 328°
2026-05-04 19:14 50.72638 7.96314 11177 ft 328 kts 328°
2026-05-04 19:14 50.74546 7.94506 10927 ft 313 kts 321°
2026-05-04 19:15 50.76084 7.92260 10666 ft 299 kts 305°
2026-05-04 19:15 50.77269 7.89643 10709 ft 289 kts 299°
2026-05-04 19:15 50.78359 7.87030 10308 ft 285 kts 299°
2026-05-04 19:15 50.79452 7.84393 9728 ft 289 kts 299°
2026-05-04 19:16 50.80561 7.81743 9284 ft 288 kts 299°
2026-05-04 19:16 50.81663 7.79122 8819 ft 286 kts 299°
2026-05-04 19:16 50.82759 7.76495 8381 ft 284 kts 299°
2026-05-04 19:16 50.83847 7.73891 7931 ft 283 kts 299°
2026-05-04 19:17 50.84931 7.71295 7478 ft 282 kts 299°
2026-05-04 19:17 50.86005 7.68724 7137 ft 279 kts 299°
2026-05-04 19:17 50.87082 7.66159 6865 ft 279 kts 300°
2026-05-04 19:17 50.88150 7.63602 6397 ft 279 kts 300°
2026-05-04 19:18 50.89213 7.61046 5968 ft 277 kts 300°
2026-05-04 19:18 50.90160 7.58764 5610 ft 273 kts 300°
2026-05-04 19:18 50.91202 7.56255 5231 ft 272 kts 301°
2026-05-04 19:18 50.92246 7.53751 4866 ft 270 kts 301°
2026-05-04 19:19 50.93272 7.51275 4489 ft 269 kts 301°
2026-05-04 19:19 50.94287 7.48835 4276 ft 258 kts 301°
2026-05-04 19:19 50.95195 7.46455 4122 ft 246 kts 292°
2026-05-04 19:19 50.95447 7.43917 3809 ft 227 kts 259°
2026-05-04 19:20 50.94741 7.41793 3301 ft 217 kts 221°
2026-05-04 19:20 50.93690 7.40150 3045 ft 216 kts 239°
2026-05-04 19:20 50.93205 7.37925 2884 ft 214 kts 255°
2026-05-04 19:20 50.92823 7.35633 2925 ft 216 kts 254°
2026-05-04 19:21 50.92344 7.33409 2787 ft 206 kts 246°
2026-05-04 19:21 50.91767 7.31418 2540 ft 192 kts 243°
2026-05-04 19:21 50.91209 7.29582 2285 ft 179 kts 244°
2026-05-04 19:21 50.90690 7.27851 2026 ft 168 kts 244°
2026-05-04 19:22 50.90203 7.26231 1801 ft 158 kts 244°
2026-05-04 19:22 50.89736 7.24680 1595 ft 153 kts 243°
2026-05-04 19:22 50.89293 7.23213 1374 ft 142 kts 243°
2026-05-04 19:22 50.88881 7.21853 1174 ft 132 kts 244°
2026-05-04 19:23 50.88497 7.20583 1000 ft 124 kts 244°
2026-05-04 19:23 50.88132 7.19373 803 ft 120 kts 244°
2026-05-04 19:23 50.87781 7.18193 652 ft 118 kts 244°
2026-05-04 19:23 50.87423 7.17019 540 ft 119 kts 242°
2026-05-04 19:24 50.87062 7.15837 376 ft 119 kts 243°
2026-05-04 19:24 50.86712 7.14689 276 ft 113 kts 244°
2026-05-04 19:24 50.86413 7.13707 260 ft 85 kts 244°
2026-05-04 19:24 50.86254 7.13159 258 ft 42 kts 245°
2026-05-04 19:25 50.86153 7.12819 251 ft 28 kts 244°
2026-05-04 19:25 50.86108 7.12521 245 ft 22 kts 275°
2026-05-04 19:25 50.86120 7.12388 243 ft 14 kts 317°
2026-05-04 19:25 50.86237 7.12334 239 ft 21 kts 348°
2026-05-04 19:26 50.86377 7.12278 238 ft 16 kts 345°
2026-05-04 19:26 50.86415 7.12203 238 ft 11 kts 266°
2026-05-04 19:26 50.86402 7.12091 238 ft 1 kts 257°
2026-05-04 19:26 50.86398 7.12064 238 ft 0 kts 257°